{"data":{"norad_id":52737,"epoch":"2026-05-25T03:36:23.688288Z","epoch_age_seconds":58220,"freshness":"FRESH","line1":"1 52737U 22057F   26145.15027417  .00006108  00000+0  18809-3 0  9998","line2":"2 52737  97.6566 289.9532 0006020 189.7448 170.3679 15.34014833222003","mean_motion":15.34014833,"eccentricity":0.000602,"inclination_deg":97.6566,"raan_deg":289.9532,"arg_perigee_deg":189.7448,"mean_anomaly_deg":170.3679,"bstar":0.00018809,"rev_number":22200,"period_min":93.871321777499,"perigee_km":459.72940209167,"apogee_km":467.96715236545,"semimajor_km":6841.9852772286,"source":"CELESTRAK","updated_at":"2026-05-25T13:37:57.884981Z"}}